7 * 24
多渠道服务支持
STARLINK-5501是美国太空探索技术公司星链互联网卫星计划中的一颗卫星,于2023年2月17日发射升空,属于星链卫星星座的组成部分,主要为全球范围内提供高速互联网接入服务,尤其能为偏远地区、网络基础设施薄弱区域提供网络覆盖。星链系统通过大量低轨卫星组网,可实现低延迟的全球网络连接,这颗卫星也承担着扩充星座容量、提升服务稳定性的作用。
美国
(US)
| 数据来源 | 国际轨道数据 |
| 星历时间: | 2026-09-12T02:29:43+0800 19小时前 查看轨道信息 |
| 半长轴: | 6950.17km |
| 偏心率: | 0.0002841 |
| 轨道倾角: | 69.999° |
| 近地点辐角 | 267.239° |
| 升交点赤经 | 75.317° |
| 平近点角 | 92.844° |
| 近地点: | 570.058km |
| 远地点: | 574.008km |
| 周期: | 96.107分钟 |
| 每日圈数: | 14.983376 |